This is the latest recevied weather packets stored in our database for station/object K4DNM. If no packets are shown the sender has not sent any weather packets the latest 1 day(s).
| Time | Temp. | Humidity | Pressure | Rain* | Wind** | Luminosity | Snow |
|---|---|---|---|---|---|---|---|
| 1778022545 | 24.44° C | 50% | 1013.2 hPa | 0 mm | 2.24 m/s, 171° | 26 W/m² | - |
| 1778022244 | 24.44° C | 50% | 1013.2 hPa | 0 mm | 1.79 m/s, 153° | 23 W/m² | - |
| 1778021945 | 24.44° C | 50% | 1013.2 hPa | 0 mm | 1.34 m/s, 224° | 38 W/m² | - |
| 1778021645 | 24.44° C | 50% | 1013.2 hPa | 0 mm | 1.34 m/s, 156° | 46 W/m² | - |
| 1778021346 | 24.44° C | 50% | 1013.3 hPa | 0 mm | 1.79 m/s, 187° | 45 W/m² | - |
| 1778021105 | 25° C | 50% | 1013.4 hPa | 0 mm | 2.24 m/s, 185° | 40 W/m² | - |
| 1778020807 | 25° C | 49% | 1013.3 hPa | 0 mm | 2.24 m/s, 308° | 37 W/m² | - |
| 1778020446 | 25° C | 49% | 1013.4 hPa | 0 mm | 1.79 m/s, 196° | 42 W/m² | - |
| 1778020143 | 25° C | 49% | 1013.5 hPa | 0 mm | 1.79 m/s, 178° | 37 W/m² | - |
| 1778019840 | 25.56° C | 48% | 1013.5 hPa | 0 mm | 1.79 m/s, 85° | 37 W/m² | - |
| 1778019540 | 25.56° C | 48% | 1013.4 hPa | 0 mm | 2.24 m/s, 155° | 57 W/m² | - |
| 1778019299 | 25.56° C | 48% | 1013.4 hPa | 0 mm | 2.24 m/s, 140° | 76 W/m² | - |
| 1778018937 | 26.11° C | 47% | 1013.4 hPa | 0 mm | 2.24 m/s, 178° | 69 W/m² | - |
| 1778018638 | 26.11° C | 48% | 1013.4 hPa | 0 mm | 1.79 m/s, 179° | 85 W/m² | - |
| 1778018337 | 26.11° C | 48% | 1013.4 hPa | 0 mm | 2.24 m/s, 186° | 115 W/m² | - |
| 1778018037 | 26.11° C | 48% | 1013.5 hPa | 0 mm | 1.79 m/s, 163° | 96 W/m² | - |
| 1778017738 | 26.11° C | 48% | 1013.5 hPa | 0 mm | 1.79 m/s, 238° | 123 W/m² | - |
| 1778017436 | 26.11° C | 47% | 1013.5 hPa | 0 mm | 1.79 m/s, 195° | 118 W/m² | - |
| 1778017136 | 26.11° C | 46% | 1013.4 hPa | 0 mm | 1.79 m/s, 196° | 116 W/m² | - |
| 1778016836 | 26.11° C | 46% | 1013.3 hPa | 0 mm | 1.79 m/s, 167° | 96 W/m² | - |
| 1778016535 | 26.67° C | 46% | 1013.3 hPa | 0 mm | 1.79 m/s, 183° | 85 W/m² | - |
| 1778016295 | 26.11° C | 45% | 1013.3 hPa | 0 mm | 1.79 m/s, 144° | 86 W/m² | - |
| 1778015935 | 26.67° C | 45% | 1013.4 hPa | 0 mm | 1.79 m/s, 194° | 80 W/m² | - |
| 1778015637 | 26.67° C | 45% | 1013.5 hPa | 0 mm | 2.24 m/s, 134° | 80 W/m² | - |
| 1778015337 | 26.67° C | 44% | 1013.4 hPa | 0 mm | 2.24 m/s, 247° | 168 W/m² | - |
* Rain latest hour (hover to see other rain measurements)
** Current wind speed in m/s (hover to see current wind gust speed)